www.pogodaiklimat.ru

Погода и климат >> Архив погоды >> Россия >> Якутия >> Сеген-Кюель


АРХИВ ПОГОДЫ в Сеген-Кюеле

Время (UTC), дата Ветер
(напр.,м/с)
 
Видим.   Явления Облачность Т
(С)
Тd
(С)
f
(%)
Тe
(С)
Тes
(С)
Комфортность P
(гПа)
Po
(гПа)
Тmin
(С)
Tmax
(С)
R
(мм)
R24
(мм)
S
(см)
03 17.03 СВ 4 50 км ясно -14.3 -25.0 40 -22 -19 1012.3 984.9
06 17.03 С 4 50 км {метель} ясно -11.9 -22.8 40 -19 -17 1011.4 984.2
09 17.03 С 4 50 км ясно -13.3 -24.1 40 -21 -21 1012.2 984.9
12 17.03 С 5 50 км позёмок ясно -15.4 -26.0 40 -24 -24 1013.4 985.9 -10.7
15 17.03 С 5 50 км позёмок ясно -16.7 -27.2 40 -26 -26 1014.0 986.3
18 17.03 С 5 50 км позёмок ясно -17.2 -27.6 40 -27 -27 1013.8 986.1
21 17.03 С 6 50 км позёмок ясно -17.8 -28.2 40 -28 -28 1014.1 986.2
00 18.03 С 6 50 км позёмок ясно -17.1 -27.5 40 -27 -27 1014.2 986.5 -17.8 48
03 18.03 СВ 4 50 км позёмок ясно -14.8 -25.4 40 -23 -20 1014.0 986.5
06 18.03 С 3 50 км {метель} ясно -12.1 -24.5 35 -18 -16 1013.7 986.5
09 18.03 С 3 50 км ясно -14.3 -26.4 35 -21 -21 1014.5 987.1
12 18.03 С 2 50 км ясно -19.2 -29.4 40 -25 -25 1016.1 988.0 -11.5
15 18.03 С 4 50 км ясно -17.7 -28.1 40 -26 -26 1016.5 988.5
18 18.03 С 3 50 км 4/0
[Ci fib]
-19.0 -29.3 40 -26 -26 1017.2 989.1
21 18.03 С 1 50 км 1/0
[Ci fib]
-22.7 -31.4 45 -26 -26 1018.7 990.1
00 19.03 С 3 50 км 1/0
[Ci fib]
-19.0 -29.3 40 -26 -25 1019.4 991.3 -23.5 46
03 19.03 СВ 3 50 км 1/0
[Ci fib]
-16.0 -26.5 40 -23 -19 1019.7 991.9
06 19.03 СВ 2 50 км ясно -14.3 -26.4 35 -19 -17 1019.9 992.3
09 19.03 СВ 1 50 км ясно -15.0 -27.1 35 -18 -18 1020.6 992.8
12 19.03 С 2 50 км ясно -22.8 -31.5 45 -29 -29 1022.3 993.6 -13.2
15 19.03 С 1 50 км ясно -30.3 -35.7 59 -34 -34 опасность
обморожения
1023.4 993.9
18 19.03 СЗ 1 50 км ясно -35.3 -39.8 63 -40 -40 опасность
обморожения
1024.5 994.3
21 19.03 штиль 0 50 км ясно -36.7 -40.8 66 -37 -37 опасность
обморожения
1025.2 994.8
00 20.03 З 1 50 км ясно -25.7 -31.2 60 -29 -27 1024.3 995.2 -37.4 46
03 20.03 С 1 50 км ясно -17.4 -26.5 45 -20 -15 1023.1 995.1
06 20.03 С 1 50 км ясно -12.4 -23.2 40 -15 -12 1022.5 995.0
09 20.03 штиль 0 50 км ясно -13.5 -25.7 35 -14 -13 1023.0 995.4
12 20.03 Ю 1 50 км ясно -23.1 -29.8 54 -26 -26 1025.0 996.3 -11.9
15 20.03 СЗ 1 50 км ясно -32.7 -37.2 64 -37 -37 опасность
обморожения
1026.7 996.8
18 20.03 штиль 0 50 км ясно -35.6 -39.8 65 -36 -36 опасность
обморожения
1026.9 996.6
21 20.03 штиль 0 50 км ясно -37.8 -41.9 65 -38 -38 опасность
обморожения
1027.4 996.8
00 21.03 З 1 50 км ясно -26.0 -30.6 65 -30 -27 1025.9 996.8 -38.2 46
03 21.03 штиль 0 50 км ясно -16.3 -25.5 45 -16 -10 1024.4 996.5
06 21.03 Ю 2 50 км ясно -13.5 -25.7 35 -18 -15 1023.3 995.7
09 21.03 ЮЗ 1 50 км ясно -13.6 -25.8 35 -16 -16 1023.1 995.4
12 21.03 С 1 50 км ясно -26.1 -33.5 50 -30 -30 1024.5 995.4 -13.0
15 21.03 СЗ 1 50 км ясно -31.9 -36.5 64 -36 -36 опасность
обморожения
1024.9 995.1
18 21.03 З 1 50 км ясно -36.2 -40.4 65 -41 -41 опасность
обморожения
1024.6 994.3
21 21.03 СЗ 1 50 км ясно -37.4 -41.5 65 -42 -42 опасность
обморожения
1024.4 994.0
00 22.03 З 1 50 км ясно -24.9 -29.7 64 -28 -26 1022.1 993.2 -38.3 46
03 22.03 С 1 50 км ясно -17.8 -25.7 50 -21 -15 1019.8 991.8
06 22.03 З 1 50 км ясно -12.1 -24.5 35 -14 -11 1017.7 990.4
09 22.03 В 1 50 км ясно -13.8 -26.0 35 -16 -16 1016.8 989.2
12 22.03 СЗ 1 50 км ясно -25.3 -32.8 49 -29 -29 1017.2 988.4 -11.3
15 22.03 штиль 0 50 км 5/0
[Ci fib]
-30.3 -35.7 59 -30 -30 1016.4 987.2
18 22.03 штиль 0 50 км 10/0
[Cs]
-29.5 -34.1 64 -30 -30 1014.6 985.1
21 22.03 штиль 0 50 км 10/0
[Ac trans Cs]
-26.4 -30.3 70 -26 -26 1012.5 983.7
00 23.03 С 1 20 км слаб. снег 10/0
[Ac trans Cs]
-19.0 -23.1 70 -22 -21 1010.1 982.3 -30.8 0.0 46
03 23.03 В 3 20 км слаб. снег 10/0
[Ac trans Cs]
-13.1 -20.2 55 -19 -17 1007.1 919.9
06 23.03 В 2 50 км {снег} 10/0
[Ac trans Cs]
-11.1 -19.5 50 -16 -14 1004.6 977.6
09 23.03 ЮВ 2 50 км 10/0
[Ac trans Cs]
-11.3 -20.9 45 -16 -16 1004.6 977.6
12 23.03 Ю 1 50 км 10/0
[Cs]
-14.6 -19.7 65 -17 -17 1005.4 978.0 -10.6 0.2
15 23.03 З 1 50 км 10/0
[Cs]
-21.6 -24.8 75 -25 -25 1006.0 977.8
18 23.03 ЮЗ 1 50 км 10/0
[Ci fib]
-24.3 -27.5 75 -28 -28 1005.5 977.3
21 23.03 С 1 50 км 8/0
[Ci fib]
-21.2 -23.7 80 -24 -24 1005.3 977.4
00 24.03 З 1 50 км 10/0
[Ci fib]
-17.8 -21.9 70 -21 -18 1006.2 978.5 -25.0 46

 

Местоположение метеостанции Сеген-Кюель (Якутия, Россия): широта 64.00 долгота 130.30 высота над уровнем моря 208 м.

В архиве по умолчанию представлена погода в Сеген-Кюеле за последнюю неделю. Архивные данные за месяц целиком и за предыдущие месяцы, начиная с января 2011 года, Вы можете получить, выбрав интересующий диапазон дат из раскрывающегося списка и нажав кнопку "Ввод!".


*Определитесь, кто Вы:
робот инопланетянин человек

Внимание! Время в таблицах - всемирное. Для получения местного времени необходимо прибавить поправку, которая равна 9 ч.

Смотрите также архив погоды в соседних городах и на ближайших метеорологических станциях:

Погода в Батамае (Якутия, Россия) (69 км)
Погода в Верхоянском Перевозе (Якутия, Россия) (113 км)
Погода в Сангаре (Якутия, Россия) (142 км)
Погода в Себян-Кюеле (Якутия, Россия) (145 км)
Погода в Намцах (Якутия, Россия) (147 км)
Погода в Сого-Хае (Якутия, Россия) (192 км)
Погода в Якутске (Якутия, Россия) (225 км)
Погода в Ытык-Кюёле (Якутия, Россия) (242 км)
Погода в Крест-Хальджае (Якутия, Россия) (243 км)
Погода в Чурапче (Якутия, Россия) (248 км)

Пояснения к столбцам:

Ветер - указаны скорость ветра в м/с - средняя за 10 мин, порывы в срок и между сроками (в фигурных скобках) и направление, откуда дует ветер: С - северный, СВ - северо-восточный, В - восточный, ЮВ - юго-восточный, Ю - южный, ЮЗ - юго-западный, З - западный, СЗ - северо-западный.
Видимость - горизонтальная дальность видимости в метрах или километрах. При видимости от 1 до 10 км при отсутствии осадков обычно наблюдается дымка, при ухудшении видимости до 1 км и менее - туман. В сухую погоду видимость может ухудшаться дымом, пылью или мглою.
Явления - указаны атмосферные явления, наблюдавшиеся в срок или в последний час перед сроком; фигурными скобками обозначены явления, наблюдавшиеся между сроками (за 1-3 часа до срока); квадратными скобками обозначены град или гололедные отложения с указанием их диаметра в мм.
Облачность - указаны через наклонную черту общая и нижняя облачность в баллах и высота нижней границы облаков в метрах; квадратными скобками обозначены формы облаков: Ci - перистые, Cs - перисто-слоистые, Cc - перисто-кучевые, Ac - высококучевые, As - высокослоистые, Sc - слоисто-кучевые, Ns - слоисто-дождевые, Cu - кучевые, Cb - кучево-дождевые. Подробнее классификацию облаков см. в Атласе облаков (PDF).
T - Температура воздуха - температура, измеренная на высоте 2 м над землей.
Td - Температура точки росы - температура, при понижении до которой содержащийся в воздухе водяной пар достигнет насыщения.
f - Относительная влажность воздуха - влажноcть воздуха, измеренная на высоте 2 м над землей.
Te - Эффективная температура - температура, которую ощущает одетый по сезону человек в тени. Характеристика душности погоды. При расчете учитывается влияние влажности воздуха и скорости ветра на теплоощущения человека.
Tes - Эффективная температура на солнце - температура, которую ощущает человек, с поправкой на солнечный нагрев. Характеристика знойности погоды. Зависит от высоты солнца над горизонтом, облачности и скорости ветра. Ночью, в пасмурную погоду, а также при ветре 12 м/с и более поправка равна нулю.
P - Атмосферное давление - приведенное к уровню моря атмосферное давление.
Po - Атмосферное давление - измеренное на уровне метеостанции атмосферное давление.
Tmin - Минимальная температура - минимум температуры воздуха на высоте 2 м над землей.
Tmax - Максимальная температура - максимум температуры воздуха на высоте 2 м над землей.
R - Количество осадков - Количество выпавших осадков за период времени, мм. При наведении курсора мыши на число - период времени, за который выпало указанное количество осадков.
R24 - Количество осадков - Количество выпавших осадков за 24 часа, мм.
S - Снежный покров - Высота снежного покрова, см. При наведении курсора мыши на число - состояние снежного покрова и степень покрытия местности в баллах.